Regional Weather Roundup
Issued by NWS

Home | Current Version | Previous Version | Text Only | Print | Product List | Glossary Off
Versions: 1 2 3 4 5 6 7 8 9 10 11 12 13 14 15 16 17 18 19 20 21 22 23 24 25 26 27 28 29 30 31 32 33 34 35 36 37 38 39 40 41 42 43 44 45 46 47 48 49 50

000
ASUS43 KMKX 042321
RWRWI

WISCONSIN REGIONAL WEATHER ROUNDUP
NATIONAL WEATHER SERVICE MILWAUKEE/SULLIVAN WI
600 PM CDT FRI SEP 04 2015

NOTE: "FAIR" INDICATES FEW OR NO CLOUDS BELOW 12,000 FEET WITH NO
SIGNIFICANT WEATHER AND/OR OBSTRUCTIONS TO VISIBILITY.

WIZ001-002-006>008-014>016-023>028-050000-
NORTHWEST WISCONSIN

CITY           SKY/WX    TMP DP  RH WIND       PRES   REMARKS
SUPERIOR ARPT  SUNNY     62  59  88 E9G17     29.96S
ASHLAND        SUNNY     70  65  84 N8        29.97S
HAYWARD        SUNNY     82  69  64 S8        29.98R HX  85
SIREN          SUNNY     84  70  63 SE10      29.94R HX  88
CUMBERLAND     MOSUNNY   81  70  69 SE9       29.97R HX  84
RICE LAKE      MOSUNNY   81  70  68 E9        29.98R HX  84
CHETEK         SUNNY     82  73  74 SE8       29.97R HX  86
LADYSMITH      SUNNY     82  66  58 SE9       30.01S HX  84
EAU CLAIRE     SUNNY     83  71  67 SE10      29.95R HX  87
MENOMONIE      MOSUNNY   85  72  65 SE8       29.95R HX  90
NEW RICHMOND   SUNNY     84  70  62 SE9       29.94S HX  88
OSCEOLA        SUNNY     84  71  65 SE10      29.95R HX  89
$$

WIZ003>005-009-010-017-018-050000-
NORTH CENTRAL WISCONSIN

CITY           SKY/WX    TMP DP  RH WIND       PRES   REMARKS
MANITOWISH WTR SUNNY     80  65  60 SE5       30.02S HX  81
ARBOR VITAE    SUNNY     82  67  59 SE7       30.03S HX  85
WOODRUFF       SUNNY     82  67  59 SE7       30.03S HX  85
RHINELANDER    SUNNY     80  64  58 E12       30.05S HX  82
EAGLE RIVER    SUNNY     79  61  53 SE6       30.05R HX  80
LAND O LAKES   SUNNY     80  62  55 SE7       30.06S HX  81
PHILLIPS       SUNNY     80  67  64 SE6       30.02R HX  82
TOMAHAWK       SUNNY     79  65  60 CALM      30.03S HX  81
MEDFORD        SUNNY     77  68  73 SE6       30.03R
MERRILL        SUNNY     80  67  65 S6        30.03R HX  82
$$

WIZ029-030-035-036-043>047-050000-
CENTRAL WISCONSIN

CITY           SKY/WX    TMP DP  RH WIND       PRES   REMARKS
WAUSAU         SUNNY     80  66  62 VRB7      30.01S HX  82
MOSINEE        MOSUNNY   79  68  69 SE7       30.04R HX  81
MARSHFIELD     MOSUNNY   80  65  59 SE8       30.02S HX  82
STEVENS POINT  SUNNY     76  66  71 SE5       30.03S
WAUPACA        SUNNY     80  67  65 SE6       30.03R HX  82
WAUTOMA        SUNNY     77  68  73 E7        30.03R
WISC RAPIDS    MOSUNNY   79  64  60 E8        30.03R HX  81
CAMP DOUGLAS   SUNNY     82  77  84 SE7       29.99S HX  90
$$

WIZ011>013-019>022-031-037>040-048>050-050000-
NORTHEAST WISCONSIN

CITY           SKY/WX    TMP DP  RH WIND       PRES   REMARKS
ANTIGO         SUNNY     74  66  77 SE7       30.05S
SHAWANO        NOT AVBL
OCONTO         SUNNY     73  69  85 E3        30.03S
STURGEON BAY   MOSUNNY   72  64  78 E6        30.07R
GREEN BAY      MOSUNNY   76  68  76 NE9       30.03S
MANITOWOC      SUNNY     68  65  90 MISG      30.05R
APPLETON       MOSUNNY   75  64  69 VRB3      30.02S
CLINTONVILLE   MOSUNNY   77  66  69 E7        30.03R
OSHKOSH        SUNNY     75  65  70 SE3       30.03S
$$

WIZ032>034-041-042-053>061-050000-
SOUTHWEST WISCONSIN

CITY           SKY/WX    TMP DP  RH WIND       PRES   REMARKS
LA CROSSE      SUNNY     87  69  54 SE8       29.94F HX  91
SPARTA         MOSUNNY   84  70  63 SE7       29.98S HX  88
VIROQUA        PTSUNNY   85  70  60 S5        30.00S HX  89
BOSCOBEL       PTSUNNY   89  70  53 VRB3      29.96S HX  94
PRAIRIE DU CHI MOSUNNY   88  66  47 SE3       29.95S HX  90
PLATTEVILLE    SUNNY     85  73  67 S7        29.99R HX  91
$$

WIZ056-057-062-063-064-067-068-050000-
SOUTH CENTRAL WISCONSIN

CITY           SKY/WX    TMP DP  RH WIND       PRES   REMARKS
REEDSBURG      SUNNY     83  73  71 E5        29.99S HX  88
BARABOO/DELLS  SUNNY     82  69  64 E7        30.00S HX  85
LONE ROCK      SUNNY     86  73  65 SE6       29.98S HX  93
MINERAL POINT  SUNNY     86  70  58 CALM      30.00S HX  90
MADISON        MOSUNNY   82  71  69 NE9       29.99S HX  86
MIDDLETON      MOSUNNY   84  71  63 E7        30.00S HX  88
WATERTOWN      MOSUNNY   80  71  74 E6        30.01S HX  83
MONROE         PTSUNNY   84  70  61 S5        29.99F HX  88
JANESVILLE     MOSUNNY   88  72  58 CALM      29.98S HX  94
$$

WIZ051-052-058>065-066-070>072-050000-
SOUTHEAST WISCONSIN

CITY           SKY/WX    TMP DP  RH WIND       PRES   REMARKS
MILWAUKEE      MOSUNNY   70  65  84 E9        30.03F
WAUKESHA       MOSUNNY   73  64  73 E8        30.03S
MILWAUKEE/TIMM NOT AVBL
RACINE         PTSUNNY   71  65  81 NE9       30.05S
BURLINGTON     SUNNY     75  65  72 E9        30.02S
KENOSHA        SUNNY     71  65  81 E12       30.03F
FOND DU LAC    MOSUNNY   75  67  76 E6        30.03S
SHEBOYGAN      MOSUNNY   70  65  84 E5        30.04R
WEST BEND      MOSUNNY   72  63  73 CALM      30.03F
JUNEAU         PTSUNNY   78  67  68 E3        30.03S HX  81
$$

LSZ147-162-050000-
LAKE SUPERIOR

STATION/POSITION TIME  TEMP    WIND        PRES    WAVE
                       AIR SEA DIR/SP/G            HT/PER
                 (UTC) (F)     (DEG/KT/KT) (MB)    (FT/S)
W MID LAKE BUOY  2250   62 58   60/ 12/ 14 1015.6F   1/ 3
DEVILS ISLAND    2300   62      80/ 10/ 11 1015.4R
PORT WING        2200   56      30/ 19/ 21 1014.2F
SAXON HARBOR     2200   70     300/  6/  7 1014.6
$$

LMZ867-665-643>646-050000-
LAKE MICHIGAN

STATION/POSITION TIME  TEMP    WIND        PRES    WAVE
                       AIR SEA DIR/SP/G            HT/PER
                 (UTC) (F)     (DEG/KT/KT) (MB)    (FT/S)
CHAMBERS ISLAND  2200   70      50/  6/  9 1017.3S
S GREEN BAY BUOY 2300   69 68   50/  6/ 10 1018.2F
N MID LAKE BUOY  2250   69 67   40/  6/  8 1017.1F   1/ 4
NORTHPORT PIER   2200   70      90/  5/  8 1017.3F
SISTER BAY       2211   75      90/ 10/ 14   N/A
ALGOMA LAKESHORE 2229           70/ 11/ 14   N/A
KEWAUNEE LAKESHO 2300   65      30/  5/  7 1016.5R
SHEBOYGAN LAKESH 2300   62     360/  2/  2 1017.6R
PORT WASHINGTON  2240   65      30/  5/  9 1017.6R
ATWATER BUOY     2300   63 61  220/  4/  4 1018.4F
MILWAUKEE LAKESH 2310   64     340/  1/  1   N/A
S MID LAKE BUOY  2250   69 71   30/  8/  8 1016.6S   1
KENOSHA   LAKESH 2300   65      CALM  /  4 1016.6F
$$

TC  - TEMPERATURE IN CELSIUS
VSB - VISIBILITY IN STATUTE MILES
WCI - WIND CHILL INDEX
HX  - HEAT INDEX



USA.gov is the U.S. government's official web portal to all federal, state and local government web resources and services.